owner,sensor,date,latitude,longitude,vertical_datum,sea_water_practical_salinity,qcFlag 
COMPS,ioos:station:USF.COMPS:EGK:1,2013-06-01T00:00:00Z,27.6010,-82.7510,1.0,26.924,1111122 
COMPS,ioos:station:USF.COMPS:EGK:1,2013-06-01T00:06:00Z,27.6010,-82.7510,1.0,26.696,1111122 
COMPS,ioos:station:USF.COMPS:EGK:1,2013-06-01T00:12:00Z,27.6010,-82.7510,1.0,25.888,1111122 
COMPS,ioos:station:USF.COMPS:EGK:1,2013-06-01T00:18:00Z,27.6010,-82.7510,1.0,26.151,1111122 
COMPS,ioos:station:USF.COMPS:EGK:1,2013-06-01T00:24:00Z,27.6010,-82.7510,1.0,26.684,1111122 
COMPS,ioos:station:USF.COMPS:EGK:1,2013-06-01T00:30:00Z,27.6010,-82.7510,1.0,26.566,1111122 
COMPS,ioos:station:USF.COMPS:EGK:1,2013-06-01T00:36:00Z,27.6010,-82.7510,1.0,26.3,1111122 
COMPS,ioos:station:USF.COMPS:EGK:1,2013-06-01T00:42:00Z,27.6010,-82.7510,1.0,26.543,1111122 
COMPS,ioos:station:USF.COMPS:EGK:1,2013-06-01T00:48:00Z,27.6010,-82.7510,1.0,26.435,1111122 
COMPS,ioos:station:USF.COMPS:EGK:1,2013-06-01T00:54:00Z,27.6010,-82.7510,1.0,27.037,1111122 
COMPS,ioos:station:USF.COMPS:EGK:1,2013-06-01T01:00:00Z,27.6010,-82.7510,1.0,27.045,1111122 
COMPS,ioos:station:USF.COMPS:EGK:1,2013-06-01T01:06:00Z,27.6010,-82.7510,1.0,28.525,1111122 
COMPS,ioos:station:USF.COMPS:EGK:1,2013-06-01T01:12:00Z,27.6010,-82.7510,1.0,39.834,1111122 
COMPS,ioos:station:USF.COMPS:EGK:1,2013-06-01T01:18:00Z,27.6010,-82.7510,1.0,39.841,1111122 
COMPS,ioos:station:USF.COMPS:EGK:1,2013-06-01T01:24:00Z,27.6010,-82.7510,1.0,37.485,1111122 
COMPS,ioos:station:USF.COMPS:EGK:1,2013-06-01T01:30:00Z,27.6010,-82.7510,1.0,39.96,1111122 
COMPS,ioos:station:USF.COMPS:EGK:1,2013-06-01T01:36:00Z,27.6010,-82.7510,1.0,40.397,1111122 
COMPS,ioos:station:USF.COMPS:EGK:1,2013-06-01T01:42:00Z,27.6010,-82.7510,1.0,40.048,1111122 
COMPS,ioos:station:USF.COMPS:EGK:1,2013-06-01T01:48:00Z,27.6010,-82.7510,1.0,41.508,1111122 
COMPS,ioos:station:USF.COMPS:EGK:1,2013-06-01T01:54:00Z,27.6010,-82.7510,1.0,41.897,1111122 
COMPS,ioos:station:USF.COMPS:EGK:1,2013-06-01T02:00:00Z,27.6010,-82.7510,1.0,42.192,1111122 
COMPS,ioos:station:USF.COMPS:EGK:1,2013-06-01T02:06:00Z,27.6010,-82.7510,1.0,42.445,1111122 
COMPS,ioos:station:USF.COMPS:EGK:1,2013-06-01T02:12:00Z,27.6010,-82.7510,1.0,42.942,1111122 
COMPS,ioos:station:USF.COMPS:EGK:1,2013-06-01T02:18:00Z,27.6010,-82.7510,1.0,40.182,1111122 
COMPS,ioos:station:USF.COMPS:EGK:1,2013-06-01T02:24:00Z,27.6010,-82.7510,1.0,41.976,1111122 
COMPS,ioos:station:USF.COMPS:EGK:1,2013-06-01T02:30:00Z,27.6010,-82.7510,1.0,41.467,1111122 
COMPS,ioos:station:USF.COMPS:EGK:1,2013-06-01T02:36:00Z,27.6010,-82.7510,1.0,39.934,1111122 
COMPS,ioos:station:USF.COMPS:EGK:1,2013-06-01T02:42:00Z,27.6010,-82.7510,1.0,39.653,1111122 
COMPS,ioos:station:USF.COMPS:EGK:1,2013-06-01T02:48:00Z,27.6010,-82.7510,1.0,38.812,1111122 
COMPS,ioos:station:USF.COMPS:EGK:1,2013-06-01T02:54:00Z,27.6010,-82.7510,1.0,39.487,1111122 
COMPS,ioos:station:USF.COMPS:EGK:1,2013-06-01T03:00:00Z,27.6010,-82.7510,1.0,40.09,1111122 
COMPS,ioos:station:USF.COMPS:EGK:1,2013-06-01T03:06:00Z,27.6010,-82.7510,1.0,39.522,1111122 
COMPS,ioos:station:USF.COMPS:EGK:1,2013-06-01T03:12:00Z,27.6010,-82.7510,1.0,39.236,1111122 
COMPS,ioos:station:USF.COMPS:EGK:1,2013-06-01T03:18:00Z,27.6010,-82.7510,1.0,38.686,1111122 
COMPS,ioos:station:USF.COMPS:EGK:1,2013-06-01T03:24:00Z,27.6010,-82.7510,1.0,37.129,1111122 
COMPS,ioos:station:USF.COMPS:EGK:1,2013-06-01T03:30:00Z,27.6010,-82.7510,1.0,39.898,1111122 
COMPS,ioos:station:USF.COMPS:EGK:1,2013-06-01T03:36:00Z,27.6010,-82.7510,1.0,41.138,1111122 
COMPS,ioos:station:USF.COMPS:EGK:1,2013-06-01T03:42:00Z,27.6010,-82.7510,1.0,41.237,1111122 
COMPS,ioos:station:USF.COMPS:EGK:1,2013-06-01T03:48:00Z,27.6010,-82.7510,1.0,39.839,1111122 
COMPS,ioos:station:USF.COMPS:EGK:1,2013-06-01T03:54:00Z,27.6010,-82.7510,1.0,38.22,1111122 
COMPS,ioos:station:USF.COMPS:EGK:1,2013-06-01T04:00:00Z,27.6010,-82.7510,1.0,36.689,1111122 
COMPS,ioos:station:USF.COMPS:EGK:1,2013-06-01T04:06:00Z,27.6010,-82.7510,1.0,36.754,1111122 
COMPS,ioos:station:USF.COMPS:EGK:1,2013-06-01T04:12:00Z,27.6010,-82.7510,1.0,37.57,1111122 
COMPS,ioos:station:USF.COMPS:EGK:1,2013-06-01T04:18:00Z,27.6010,-82.7510,1.0,38.078,1111122 
COMPS,ioos:station:USF.COMPS:EGK:1,2013-06-01T04:24:00Z,27.6010,-82.7510,1.0,38.812,1111122 
COMPS,ioos:station:USF.COMPS:EGK:1,2013-06-01T04:30:00Z,27.6010,-82.7510,1.0,38.53,1111122 
COMPS,ioos:station:USF.COMPS:EGK:1,2013-06-01T04:36:00Z,27.6010,-82.7510,1.0,39.093,1111122 
COMPS,ioos:station:USF.COMPS:EGK:1,2013-06-01T04:42:00Z,27.6010,-82.7510,1.0,39.527,1111122 
COMPS,ioos:station:USF.COMPS:EGK:1,2013-06-01T04:48:00Z,27.6010,-82.7510,1.0,40.029,1111122 
COMPS,ioos:station:USF.COMPS:EGK:1,2013-06-01T04:54:00Z,27.6010,-82.7510,1.0,40.123,1111122 
COMPS,ioos:station:USF.COMPS:EGK:1,2013-06-01T05:00:00Z,27.6010,-82.7510,1.0,40.391,1111122 
COMPS,ioos:station:USF.COMPS:EGK:1,2013-06-01T05:06:00Z,27.6010,-82.7510,1.0,40.273,1111122 
COMPS,ioos:station:USF.COMPS:EGK:1,2013-06-01T05:12:00Z,27.6010,-82.7510,1.0,40.077,1111122 
COMPS,ioos:station:USF.COMPS:EGK:1,2013-06-01T05:18:00Z,27.6010,-82.7510,1.0,39.705,1111122 
COMPS,ioos:station:USF.COMPS:EGK:1,2013-06-01T05:24:00Z,27.6010,-82.7510,1.0,39.369,1111122 
COMPS,ioos:station:USF.COMPS:EGK:1,2013-06-01T05:30:00Z,27.6010,-82.7510,1.0,38.127,1111122 
COMPS,ioos:station:USF.COMPS:EGK:1,2013-06-01T05:36:00Z,27.6010,-82.7510,1.0,38.418,1111122 
COMPS,ioos:station:USF.COMPS:EGK:1,2013-06-01T05:42:00Z,27.6010,-82.7510,1.0,38.699,1111122 
COMPS,ioos:station:USF.COMPS:EGK:1,2013-06-01T05:48:00Z,27.6010,-82.7510,1.0,38.17,1111122 
COMPS,ioos:station:USF.COMPS:EGK:1,2013-06-01T05:54:00Z,27.6010,-82.7510,1.0,37.732,1111122 
COMPS,ioos:station:USF.COMPS:EGK:1,2013-06-01T06:00:00Z,27.6010,-82.7510,1.0,37.647,1111122 
COMPS,ioos:station:USF.COMPS:EGK:1,2013-06-01T06:06:00Z,27.6010,-82.7510,1.0,37.929,1111122 
COMPS,ioos:station:USF.COMPS:EGK:1,2013-06-01T06:12:00Z,27.6010,-82.7510,1.0,37.446,1111122 
COMPS,ioos:station:USF.COMPS:EGK:1,2013-06-01T06:18:00Z,27.6010,-82.7510,1.0,37.167,1111122 
COMPS,ioos:station:USF.COMPS:EGK:1,2013-06-01T06:24:00Z,27.6010,-82.7510,1.0,36.755,1111122 
COMPS,ioos:station:USF.COMPS:EGK:1,2013-06-01T06:30:00Z,27.6010,-82.7510,1.0,36.522,1111122 
COMPS,ioos:station:USF.COMPS:EGK:1,2013-06-01T06:36:00Z,27.6010,-82.7510,1.0,36.167,1111122 
COMPS,ioos:station:USF.COMPS:EGK:1,2013-06-01T06:42:00Z,27.6010,-82.7510,1.0,35.731,1111122 
COMPS,ioos:station:USF.COMPS:EGK:1,2013-06-01T06:48:00Z,27.6010,-82.7510,1.0,35.556,1111122 
COMPS,ioos:station:USF.COMPS:EGK:1,2013-06-01T06:54:00Z,27.6010,-82.7510,1.0,35.324,1111122 
COMPS,ioos:station:USF.COMPS:EGK:1,2013-06-01T07:00:00Z,27.6010,-82.7510,1.0,34.589,1111122 
COMPS,ioos:station:USF.COMPS:EGK:1,2013-06-01T07:06:00Z,27.6010,-82.7510,1.0,34.011,1111122 
COMPS,ioos:station:USF.COMPS:EGK:1,2013-06-01T07:12:00Z,27.6010,-82.7510,1.0,35.208,1111122 
COMPS,ioos:station:USF.COMPS:EGK:1,2013-06-01T07:18:00Z,27.6010,-82.7510,1.0,35.846,1111122 
COMPS,ioos:station:USF.COMPS:EGK:1,2013-06-01T07:24:00Z,27.6010,-82.7510,1.0,35.734,1111122 
COMPS,ioos:station:USF.COMPS:EGK:1,2013-06-01T07:30:00Z,27.6010,-82.7510,1.0,35.804,1111122 
COMPS,ioos:station:USF.COMPS:EGK:1,2013-06-01T07:36:00Z,27.6010,-82.7510,1.0,36.016,1111122 
COMPS,ioos:station:USF.COMPS:EGK:1,2013-06-01T07:42:00Z,27.6010,-82.7510,1.0,37.241,1111122 
COMPS,ioos:station:USF.COMPS:EGK:1,2013-06-01T07:48:00Z,27.6010,-82.7510,1.0,35.319,1111122 
COMPS,ioos:station:USF.COMPS:EGK:1,2013-06-01T07:54:00Z,27.6010,-82.7510,1.0,36.618,1111122 
COMPS,ioos:station:USF.COMPS:EGK:1,2013-06-01T08:00:00Z,27.6010,-82.7510,1.0,37.304,1111122 
COMPS,ioos:station:USF.COMPS:EGK:1,2013-06-01T08:06:00Z,27.6010,-82.7510,1.0,38.022,1111122 
COMPS,ioos:station:USF.COMPS:EGK:1,2013-06-01T08:12:00Z,27.6010,-82.7510,1.0,37.661,1111122 
COMPS,ioos:station:USF.COMPS:EGK:1,2013-06-01T08:18:00Z,27.6010,-82.7510,1.0,37.527,1111122 
COMPS,ioos:station:USF.COMPS:EGK:1,2013-06-01T08:24:00Z,27.6010,-82.7510,1.0,38.317,1111122 
COMPS,ioos:station:USF.COMPS:EGK:1,2013-06-01T08:30:00Z,27.6010,-82.7510,1.0,38.146,1111122 
COMPS,ioos:station:USF.COMPS:EGK:1,2013-06-01T08:36:00Z,27.6010,-82.7510,1.0,36.529,1111122 
COMPS,ioos:station:USF.COMPS:EGK:1,2013-06-01T08:42:00Z,27.6010,-82.7510,1.0,37.424,1111122 
COMPS,ioos:station:USF.COMPS:EGK:1,2013-06-01T08:48:00Z,27.6010,-82.7510,1.0,37.517,1111122 
COMPS,ioos:station:USF.COMPS:EGK:1,2013-06-01T08:54:00Z,27.6010,-82.7510,1.0,36.15,1111122 
COMPS,ioos:station:USF.COMPS:EGK:1,2013-06-01T09:00:00Z,27.6010,-82.7510,1.0,36.528,1111122 
COMPS,ioos:station:USF.COMPS:EGK:1,2013-06-01T09:06:00Z,27.6010,-82.7510,1.0,36.203,1111122 
COMPS,ioos:station:USF.COMPS:EGK:1,2013-06-01T09:12:00Z,27.6010,-82.7510,1.0,37.953,1111122 
COMPS,ioos:station:USF.COMPS:EGK:1,2013-06-01T09:18:00Z,27.6010,-82.7510,1.0,37.302,1111122 
COMPS,ioos:station:USF.COMPS:EGK:1,2013-06-01T09:24:00Z,27.6010,-82.7510,1.0,37.389,1111122 
COMPS,ioos:station:USF.COMPS:EGK:1,2013-06-01T09:30:00Z,27.6010,-82.7510,1.0,37.227,1111122 
COMPS,ioos:station:USF.COMPS:EGK:1,2013-06-01T09:36:00Z,27.6010,-82.7510,1.0,36.883,1111122 
COMPS,ioos:station:USF.COMPS:EGK:1,2013-06-01T09:42:00Z,27.6010,-82.7510,1.0,36.938,1111122 
COMPS,ioos:station:USF.COMPS:EGK:1,2013-06-01T09:48:00Z,27.6010,-82.7510,1.0,37.773,1111122 
COMPS,ioos:station:USF.COMPS:EGK:1,2013-06-01T09:54:00Z,27.6010,-82.7510,1.0,37.556,1111122 
COMPS,ioos:station:USF.COMPS:EGK:1,2013-06-01T10:00:00Z,27.6010,-82.7510,1.0,37.381,1111122 
COMPS,ioos:station:USF.COMPS:EGK:1,2013-06-01T10:06:00Z,27.6010,-82.7510,1.0,36.807,1111122 
COMPS,ioos:station:USF.COMPS:EGK:1,2013-06-01T10:12:00Z,27.6010,-82.7510,1.0,37.506,1111122 
COMPS,ioos:station:USF.COMPS:EGK:1,2013-06-01T10:18:00Z,27.6010,-82.7510,1.0,37.019,1111122 
COMPS,ioos:station:USF.COMPS:EGK:1,2013-06-01T10:24:00Z,27.6010,-82.7510,1.0,37.577,1111122 
COMPS,ioos:station:USF.COMPS:EGK:1,2013-06-01T10:30:00Z,27.6010,-82.7510,1.0,36.984,1111122 
COMPS,ioos:station:USF.COMPS:EGK:1,2013-06-01T10:36:00Z,27.6010,-82.7510,1.0,36.499,1111122 
COMPS,ioos:station:USF.COMPS:EGK:1,2013-06-01T10:42:00Z,27.6010,-82.7510,1.0,36.754,1111122 
COMPS,ioos:station:USF.COMPS:EGK:1,2013-06-01T10:48:00Z,27.6010,-82.7510,1.0,35.768,1111122 
COMPS,ioos:station:USF.COMPS:EGK:1,2013-06-01T10:54:00Z,27.6010,-82.7510,1.0,36.213,1111122 
COMPS,ioos:station:USF.COMPS:EGK:1,2013-06-01T11:00:00Z,27.6010,-82.7510,1.0,32.328,1111122 
COMPS,ioos:station:USF.COMPS:EGK:1,2013-06-01T11:06:00Z,27.6010,-82.7510,1.0,27.881,1111122 
COMPS,ioos:station:USF.COMPS:EGK:1,2013-06-01T11:12:00Z,27.6010,-82.7510,1.0,28.249,1111122 
COMPS,ioos:station:USF.COMPS:EGK:1,2013-06-01T11:18:00Z,27.6010,-82.7510,1.0,29.07,1111122 
COMPS,ioos:station:USF.COMPS:EGK:1,2013-06-01T11:24:00Z,27.6010,-82.7510,1.0,29.015,1111122 
COMPS,ioos:station:USF.COMPS:EGK:1,2013-06-01T11:30:00Z,27.6010,-82.7510,1.0,29.087,1111122 
COMPS,ioos:station:USF.COMPS:EGK:1,2013-06-01T11:36:00Z,27.6010,-82.7510,1.0,28.897,1111122 
COMPS,ioos:station:USF.COMPS:EGK:1,2013-06-01T11:42:00Z,27.6010,-82.7510,1.0,28.896,1111122 
COMPS,ioos:station:USF.COMPS:EGK:1,2013-06-01T11:48:00Z,27.6010,-82.7510,1.0,28.709,1111122 
COMPS,ioos:station:USF.COMPS:EGK:1,2013-06-01T11:54:00Z,27.6010,-82.7510,1.0,28.191,1111122 
COMPS,ioos:station:USF.COMPS:EGK:1,2013-06-01T12:00:00Z,27.6010,-82.7510,1.0,27.453,1111122 
COMPS,ioos:station:USF.COMPS:EGK:1,2013-06-01T12:06:00Z,27.6010,-82.7510,1.0,27.255,1111122 
COMPS,ioos:station:USF.COMPS:EGK:1,2013-06-01T12:12:00Z,27.6010,-82.7510,1.0,28.013,1111122 
COMPS,ioos:station:USF.COMPS:EGK:1,2013-06-01T12:18:00Z,27.6010,-82.7510,1.0,28.332,1111122 
COMPS,ioos:station:USF.COMPS:EGK:1,2013-06-01T12:24:00Z,27.6010,-82.7510,1.0,27.373,1111122 
COMPS,ioos:station:USF.COMPS:EGK:1,2013-06-01T12:30:00Z,27.6010,-82.7510,1.0,27.724,1111122 
COMPS,ioos:station:USF.COMPS:EGK:1,2013-06-01T12:36:00Z,27.6010,-82.7510,1.0,27.456,1111122 
COMPS,ioos:station:USF.COMPS:EGK:1,2013-06-01T12:42:00Z,27.6010,-82.7510,1.0,27.434,1111122 
COMPS,ioos:station:USF.COMPS:EGK:1,2013-06-01T12:48:00Z,27.6010,-82.7510,1.0,26.822,1111122 
COMPS,ioos:station:USF.COMPS:EGK:1,2013-06-01T12:54:00Z,27.6010,-82.7510,1.0,27.162,1111122 
COMPS,ioos:station:USF.COMPS:EGK:1,2013-06-01T13:00:00Z,27.6010,-82.7510,1.0,26.965,1111122 
COMPS,ioos:station:USF.COMPS:EGK:1,2013-06-01T13:06:00Z,27.6010,-82.7510,1.0,26.895,1111122 
COMPS,ioos:station:USF.COMPS:EGK:1,2013-06-01T13:12:00Z,27.6010,-82.7510,1.0,26.9,1111122 
COMPS,ioos:station:USF.COMPS:EGK:1,2013-06-01T13:18:00Z,27.6010,-82.7510,1.0,26.935,1111122 
COMPS,ioos:station:USF.COMPS:EGK:1,2013-06-01T13:24:00Z,27.6010,-82.7510,1.0,27.303,1111122 
COMPS,ioos:station:USF.COMPS:EGK:1,2013-06-01T13:30:00Z,27.6010,-82.7510,1.0,27.342,1111122 
COMPS,ioos:station:USF.COMPS:EGK:1,2013-06-01T13:36:00Z,27.6010,-82.7510,1.0,27.448,1111122 
COMPS,ioos:station:USF.COMPS:EGK:1,2013-06-01T13:42:00Z,27.6010,-82.7510,1.0,27.282,1111122 
COMPS,ioos:station:USF.COMPS:EGK:1,2013-06-01T13:48:00Z,27.6010,-82.7510,1.0,27.545,1111122 
COMPS,ioos:station:USF.COMPS:EGK:1,2013-06-01T13:54:00Z,27.6010,-82.7510,1.0,27.525,1111122 
COMPS,ioos:station:USF.COMPS:EGK:1,2013-06-01T14:00:00Z,27.6010,-82.7510,1.0,28.176,1111122 
COMPS,ioos:station:USF.COMPS:EGK:1,2013-06-01T14:06:00Z,27.6010,-82.7510,1.0,28.418,1111122 
COMPS,ioos:station:USF.COMPS:EGK:1,2013-06-01T14:12:00Z,27.6010,-82.7510,1.0,28.586,1111122 
COMPS,ioos:station:USF.COMPS:EGK:1,2013-06-01T14:18:00Z,27.6010,-82.7510,1.0,28.947,1111122 
COMPS,ioos:station:USF.COMPS:EGK:1,2013-06-01T14:24:00Z,27.6010,-82.7510,1.0,28.207,1111122 
COMPS,ioos:station:USF.COMPS:EGK:1,2013-06-01T14:30:00Z,27.6010,-82.7510,1.0,28.074,1111122 
COMPS,ioos:station:USF.COMPS:EGK:1,2013-06-01T14:36:00Z,27.6010,-82.7510,1.0,28.002,1111122 
COMPS,ioos:station:USF.COMPS:EGK:1,2013-06-01T14:42:00Z,27.6010,-82.7510,1.0,28.266,1111122 
COMPS,ioos:station:USF.COMPS:EGK:1,2013-06-01T14:48:00Z,27.6010,-82.7510,1.0,28.117,1111122 
COMPS,ioos:station:USF.COMPS:EGK:1,2013-06-01T14:54:00Z,27.6010,-82.7510,1.0,28.653,1111122 
COMPS,ioos:station:USF.COMPS:EGK:1,2013-06-01T15:00:00Z,27.6010,-82.7510,1.0,29.048,1111122 
COMPS,ioos:station:USF.COMPS:EGK:1,2013-06-01T15:06:00Z,27.6010,-82.7510,1.0,28.403,1111122 
COMPS,ioos:station:USF.COMPS:EGK:1,2013-06-01T15:12:00Z,27.6010,-82.7510,1.0,28.287,1111122 
COMPS,ioos:station:USF.COMPS:EGK:1,2013-06-01T15:18:00Z,27.6010,-82.7510,1.0,28.028,1111122 
COMPS,ioos:station:USF.COMPS:EGK:1,2013-06-01T15:24:00Z,27.6010,-82.7510,1.0,27.807,1111122 
COMPS,ioos:station:USF.COMPS:EGK:1,2013-06-01T15:30:00Z,27.6010,-82.7510,1.0,27.857,1111122 
COMPS,ioos:station:USF.COMPS:EGK:1,2013-06-01T15:36:00Z,27.6010,-82.7510,1.0,27.942,1111122 
COMPS,ioos:station:USF.COMPS:EGK:1,2013-06-01T15:42:00Z,27.6010,-82.7510,1.0,27.853,1111122 
COMPS,ioos:station:USF.COMPS:EGK:1,2013-06-01T15:48:00Z,27.6010,-82.7510,1.0,28.08,1111122 
COMPS,ioos:station:USF.COMPS:EGK:1,2013-06-01T15:54:00Z,27.6010,-82.7510,1.0,27.995,1111122 
COMPS,ioos:station:USF.COMPS:EGK:1,2013-06-01T16:00:00Z,27.6010,-82.7510,1.0,28.029,1111122 
COMPS,ioos:station:USF.COMPS:EGK:1,2013-06-01T16:06:00Z,27.6010,-82.7510,1.0,28.337,1111122 
COMPS,ioos:station:USF.COMPS:EGK:1,2013-06-01T16:12:00Z,27.6010,-82.7510,1.0,28.261,1111122 
COMPS,ioos:station:USF.COMPS:EGK:1,2013-06-01T16:18:00Z,27.6010,-82.7510,1.0,28.629,1111122 
COMPS,ioos:station:USF.COMPS:EGK:1,2013-06-01T16:24:00Z,27.6010,-82.7510,1.0,28.275,1111122 
COMPS,ioos:station:USF.COMPS:EGK:1,2013-06-01T16:30:00Z,27.6010,-82.7510,1.0,27.721,1111122 
COMPS,ioos:station:USF.COMPS:EGK:1,2013-06-01T16:36:00Z,27.6010,-82.7510,1.0,27.821,1111122 
COMPS,ioos:station:USF.COMPS:EGK:1,2013-06-01T16:42:00Z,27.6010,-82.7510,1.0,28.097,1111122 
COMPS,ioos:station:USF.COMPS:EGK:1,2013-06-01T16:48:00Z,27.6010,-82.7510,1.0,28.328,1111122 
COMPS,ioos:station:USF.COMPS:EGK:1,2013-06-01T16:54:00Z,27.6010,-82.7510,1.0,28.285,1111122 
COMPS,ioos:station:USF.COMPS:EGK:1,2013-06-01T17:00:00Z,27.6010,-82.7510,1.0,28.179,1111122 
COMPS,ioos:station:USF.COMPS:EGK:1,2013-06-01T17:06:00Z,27.6010,-82.7510,1.0,28.448,1111122 
COMPS,ioos:station:USF.COMPS:EGK:1,2013-06-01T17:12:00Z,27.6010,-82.7510,1.0,28.439,1111122 
COMPS,ioos:station:USF.COMPS:EGK:1,2013-06-01T17:18:00Z,27.6010,-82.7510,1.0,28.43,1111122 
COMPS,ioos:station:USF.COMPS:EGK:1,2013-06-01T17:24:00Z,27.6010,-82.7510,1.0,28.509,1111122 
COMPS,ioos:station:USF.COMPS:EGK:1,2013-06-01T17:30:00Z,27.6010,-82.7510,1.0,28.222,1111122 
COMPS,ioos:station:USF.COMPS:EGK:1,2013-06-01T17:36:00Z,27.6010,-82.7510,1.0,28.373,1111122 
COMPS,ioos:station:USF.COMPS:EGK:1,2013-06-01T17:42:00Z,27.6010,-82.7510,1.0,28.631,1111122 
COMPS,ioos:station:USF.COMPS:EGK:1,2013-06-01T17:48:00Z,27.6010,-82.7510,1.0,28.095,1111122 
COMPS,ioos:station:USF.COMPS:EGK:1,2013-06-01T17:54:00Z,27.6010,-82.7510,1.0,28.353,1111122 
COMPS,ioos:station:USF.COMPS:EGK:1,2013-06-01T18:00:00Z,27.6010,-82.7510,1.0,28.599,1111122 
COMPS,ioos:station:USF.COMPS:EGK:1,2013-06-01T18:06:00Z,27.6010,-82.7510,1.0,28.782,1111122 
COMPS,ioos:station:USF.COMPS:EGK:1,2013-06-01T18:12:00Z,27.6010,-82.7510,1.0,28.513,1111122 
COMPS,ioos:station:USF.COMPS:EGK:1,2013-06-01T18:18:00Z,27.6010,-82.7510,1.0,28.537,1111122 
COMPS,ioos:station:USF.COMPS:EGK:1,2013-06-01T18:24:00Z,27.6010,-82.7510,1.0,28.365,1111122 
COMPS,ioos:station:USF.COMPS:EGK:1,2013-06-01T18:30:00Z,27.6010,-82.7510,1.0,28.053,1111122 
COMPS,ioos:station:USF.COMPS:EGK:1,2013-06-01T18:36:00Z,27.6010,-82.7510,1.0,28.341,1111122 
COMPS,ioos:station:USF.COMPS:EGK:1,2013-06-01T18:42:00Z,27.6010,-82.7510,1.0,28.578,1111122 
COMPS,ioos:station:USF.COMPS:EGK:1,2013-06-01T18:48:00Z,27.6010,-82.7510,1.0,28.386,1111122 
COMPS,ioos:station:USF.COMPS:EGK:1,2013-06-01T18:54:00Z,27.6010,-82.7510,1.0,28.44,1111122 
COMPS,ioos:station:USF.COMPS:EGK:1,2013-06-01T19:00:00Z,27.6010,-82.7510,1.0,28.577,1111122 
COMPS,ioos:station:USF.COMPS:EGK:1,2013-06-01T19:06:00Z,27.6010,-82.7510,1.0,28.452,1111122 
COMPS,ioos:station:USF.COMPS:EGK:1,2013-06-01T19:12:00Z,27.6010,-82.7510,1.0,28.432,1111122 
COMPS,ioos:station:USF.COMPS:EGK:1,2013-06-01T19:18:00Z,27.6010,-82.7510,1.0,28.425,1111122 
COMPS,ioos:station:USF.COMPS:EGK:1,2013-06-01T19:24:00Z,27.6010,-82.7510,1.0,28.421,1111122 
COMPS,ioos:station:USF.COMPS:EGK:1,2013-06-01T19:30:00Z,27.6010,-82.7510,1.0,28.637,1111122 
COMPS,ioos:station:USF.COMPS:EGK:1,2013-06-01T19:36:00Z,27.6010,-82.7510,1.0,28.431,1111122 
COMPS,ioos:station:USF.COMPS:EGK:1,2013-06-01T19:42:00Z,27.6010,-82.7510,1.0,28.678,1111122 
COMPS,ioos:station:USF.COMPS:EGK:1,2013-06-01T19:48:00Z,27.6010,-82.7510,1.0,28.647,1111122 
COMPS,ioos:station:USF.COMPS:EGK:1,2013-06-01T19:54:00Z,27.6010,-82.7510,1.0,28.584,1111122 
COMPS,ioos:station:USF.COMPS:EGK:1,2013-06-01T20:00:00Z,27.6010,-82.7510,1.0,28.875,1111122 
COMPS,ioos:station:USF.COMPS:EGK:1,2013-06-01T20:06:00Z,27.6010,-82.7510,1.0,28.508,1111122 
COMPS,ioos:station:USF.COMPS:EGK:1,2013-06-01T20:12:00Z,27.6010,-82.7510,1.0,28.479,1111122 
COMPS,ioos:station:USF.COMPS:EGK:1,2013-06-01T20:18:00Z,27.6010,-82.7510,1.0,28.495,1111122 
COMPS,ioos:station:USF.COMPS:EGK:1,2013-06-01T20:24:00Z,27.6010,-82.7510,1.0,28.459,1111122 
COMPS,ioos:station:USF.COMPS:EGK:1,2013-06-01T20:30:00Z,27.6010,-82.7510,1.0,28.664,1111122 
COMPS,ioos:station:USF.COMPS:EGK:1,2013-06-01T20:36:00Z,27.6010,-82.7510,1.0,28.347,1111122 
COMPS,ioos:station:USF.COMPS:EGK:1,2013-06-01T20:42:00Z,27.6010,-82.7510,1.0,28.279,1111122 
COMPS,ioos:station:USF.COMPS:EGK:1,2013-06-01T20:48:00Z,27.6010,-82.7510,1.0,28.523,1111122 
COMPS,ioos:station:USF.COMPS:EGK:1,2013-06-01T20:54:00Z,27.6010,-82.7510,1.0,28.29,1111122 
COMPS,ioos:station:USF.COMPS:EGK:1,2013-06-01T21:00:00Z,27.6010,-82.7510,1.0,28.322,1111122 
COMPS,ioos:station:USF.COMPS:EGK:1,2013-06-01T21:06:00Z,27.6010,-82.7510,1.0,28.192,1111122 
COMPS,ioos:station:USF.COMPS:EGK:1,2013-06-01T21:12:00Z,27.6010,-82.7510,1.0,28.454,1111122 
COMPS,ioos:station:USF.COMPS:EGK:1,2013-06-01T21:18:00Z,27.6010,-82.7510,1.0,28.418,1111122 
COMPS,ioos:station:USF.COMPS:EGK:1,2013-06-01T21:24:00Z,27.6010,-82.7510,1.0,28.324,1111122 
COMPS,ioos:station:USF.COMPS:EGK:1,2013-06-01T21:30:00Z,27.6010,-82.7510,1.0,28.181,1111122 
COMPS,ioos:station:USF.COMPS:EGK:1,2013-06-01T21:36:00Z,27.6010,-82.7510,1.0,28.749,1111122 
COMPS,ioos:station:USF.COMPS:EGK:1,2013-06-01T21:42:00Z,27.6010,-82.7510,1.0,28.38,1111122 
COMPS,ioos:station:USF.COMPS:EGK:1,2013-06-01T21:48:00Z,27.6010,-82.7510,1.0,28.392,1111122 
COMPS,ioos:station:USF.COMPS:EGK:1,2013-06-01T21:54:00Z,27.6010,-82.7510,1.0,28.593,1111122 
COMPS,ioos:station:USF.COMPS:EGK:1,2013-06-01T22:00:00Z,27.6010,-82.7510,1.0,28.453,1111122 
COMPS,ioos:station:USF.COMPS:EGK:1,2013-06-01T22:06:00Z,27.6010,-82.7510,1.0,28.658,1111122 
COMPS,ioos:station:USF.COMPS:EGK:1,2013-06-01T22:12:00Z,27.6010,-82.7510,1.0,28.417,1111122 
COMPS,ioos:station:USF.COMPS:EGK:1,2013-06-01T22:18:00Z,27.6010,-82.7510,1.0,28.393,1111122 
COMPS,ioos:station:USF.COMPS:EGK:1,2013-06-01T22:24:00Z,27.6010,-82.7510,1.0,28.519,1111122 
COMPS,ioos:station:USF.COMPS:EGK:1,2013-06-01T22:30:00Z,27.6010,-82.7510,1.0,28.26,1111122 
COMPS,ioos:station:USF.COMPS:EGK:1,2013-06-01T22:36:00Z,27.6010,-82.7510,1.0,28.281,1111122 
COMPS,ioos:station:USF.COMPS:EGK:1,2013-06-01T22:42:00Z,27.6010,-82.7510,1.0,28.3,1111122 
COMPS,ioos:station:USF.COMPS:EGK:1,2013-06-01T22:48:00Z,27.6010,-82.7510,1.0,28.562,1111122 
COMPS,ioos:station:USF.COMPS:EGK:1,2013-06-01T22:54:00Z,27.6010,-82.7510,1.0,28.354,1111122 
COMPS,ioos:station:USF.COMPS:EGK:1,2013-06-01T23:00:00Z,27.6010,-82.7510,1.0,28.271,1111122 
COMPS,ioos:station:USF.COMPS:EGK:1,2013-06-01T23:06:00Z,27.6010,-82.7510,1.0,28.312,1111122 
COMPS,ioos:station:USF.COMPS:EGK:1,2013-06-01T23:12:00Z,27.6010,-82.7510,1.0,28.415,1111122 
COMPS,ioos:station:USF.COMPS:EGK:1,2013-06-01T23:18:00Z,27.6010,-82.7510,1.0,28.434,1111122 
COMPS,ioos:station:USF.COMPS:EGK:1,2013-06-01T23:24:00Z,27.6010,-82.7510,1.0,28.328,1111122 
COMPS,ioos:station:USF.COMPS:EGK:1,2013-06-01T23:30:00Z,27.6010,-82.7510,1.0,28.276,1111122 
COMPS,ioos:station:USF.COMPS:EGK:1,2013-06-01T23:36:00Z,27.6010,-82.7510,1.0,28.478,1111122 
COMPS,ioos:station:USF.COMPS:EGK:1,2013-06-01T23:42:00Z,27.6010,-82.7510,1.0,28.402,1111122 
COMPS,ioos:station:USF.COMPS:EGK:1,2013-06-01T23:48:00Z,27.6010,-82.7510,1.0,28.495,1111122 
COMPS,ioos:station:USF.COMPS:EGK:1,2013-06-01T23:54:00Z,27.6010,-82.7510,1.0,28.598,1111122 
COMPS,ioos:station:USF.COMPS:EGK:1,2013-06-02T00:00:00Z,27.6010,-82.7510,1.0,28.585,1111122 
COMPS,ioos:station:USF.COMPS:EGK:1,2013-06-02T00:06:00Z,27.6010,-82.7510,1.0,28.044,1111122 
COMPS,ioos:station:USF.COMPS:EGK:1,2013-06-02T00:12:00Z,27.6010,-82.7510,1.0,28.057,1111122 
COMPS,ioos:station:USF.COMPS:EGK:1,2013-06-02T00:18:00Z,27.6010,-82.7510,1.0,28.423,1111122 
COMPS,ioos:station:USF.COMPS:EGK:1,2013-06-02T00:24:00Z,27.6010,-82.7510,1.0,28.596,1111122 
COMPS,ioos:station:USF.COMPS:EGK:1,2013-06-02T00:30:00Z,27.6010,-82.7510,1.0,28.285,1111122 
COMPS,ioos:station:USF.COMPS:EGK:1,2013-06-02T00:36:00Z,27.6010,-82.7510,1.0,28.265,1111122 
COMPS,ioos:station:USF.COMPS:EGK:1,2013-06-02T00:42:00Z,27.6010,-82.7510,1.0,28.348,1111122 
COMPS,ioos:station:USF.COMPS:EGK:1,2013-06-02T00:48:00Z,27.6010,-82.7510,1.0,28.037,1111122 
COMPS,ioos:station:USF.COMPS:EGK:1,2013-06-02T00:54:00Z,27.6010,-82.7510,1.0,28.31,1111122 
COMPS,ioos:station:USF.COMPS:EGK:1,2013-06-02T01:00:00Z,27.6010,-82.7510,1.0,28.243,1111122 
COMPS,ioos:station:USF.COMPS:EGK:1,2013-06-02T01:06:00Z,27.6010,-82.7510,1.0,28.299,1111122 
COMPS,ioos:station:USF.COMPS:EGK:1,2013-06-02T01:12:00Z,27.6010,-82.7510,1.0,28.541,1111122 
COMPS,ioos:station:USF.COMPS:EGK:1,2013-06-02T01:18:00Z,27.6010,-82.7510,1.0,28.32,1111122 
COMPS,ioos:station:USF.COMPS:EGK:1,2013-06-02T01:24:00Z,27.6010,-82.7510,1.0,28.342,1111122 
COMPS,ioos:station:USF.COMPS:EGK:1,2013-06-02T01:30:00Z,27.6010,-82.7510,1.0,28.241,1111122 
COMPS,ioos:station:USF.COMPS:EGK:1,2013-06-02T01:36:00Z,27.6010,-82.7510,1.0,28.415,1111122 